Regional Weather Roundup
Issued by NWS

Home | Current Version | Previous Version | Graphics & Text | Print | Product List | Glossary On
Versions: 1 2 3 4 5 6 7 8 9 10 11 12 13 14 15 16 17 18 19 20 21 22 23 24 25 26 27 28 29 30 31 32 33 34 35 36 37 38 39 40 41 42 43 44 45 46 47 48 49 50
000
ASUS43 KFSD 261810
RWRSD

WEATHER ROUNDUP FOR SOUTH DAKOTA
NATIONAL WEATHER SERVICE SIOUX FALLS SD
100 PM CDT TUE JUL 26 2016

NOTE: "FAIR" INDICATES FEW OR NO CLOUDS BELOW 12,000 FEET WITH NO
SIGNIFICANT WEATHER AND/OR OBSTRUCTIONS TO VISIBILITY.


SDZ001>005-009-010-012>017-261900-
NORTHWEST AND NORTH CENTRAL SOUTH DAKOTA

CITY           SKY/WX    TMP DP  RH WIND       PRES   REMARKS
BUFFALO          N/A     75  62  64 N10       30.00R
FAITH            N/A     81  57  43 NE20      29.97F
MOBRIDGE       CLOUDY    81  66  60 N20G38    29.96S
$$

SDZ012>016-024>037-041>051-057-063-072>074-261900-
SOUTHWEST AND SOUTH CENTRAL SOUTH DAKOTA

CITY           SKY/WX    TMP DP  RH WIND       PRES   REMARKS
RAPID CTY ARPT SUNNY     81  56  42 SE8       30.05S
PIERRE         CLOUDY    85  63  47 N12       29.96F
CUSTER         SUNNY     76  48  37 E10       30.18S
ELLSWORTH AFB  SUNNY     81  58  44 S8        30.05R
PHILIP         PTSUNNY   86  57  37 E16G28    29.96S
PINE RIDGE     SUNNY     85  63  47 SE14G22   30.03F
WINNER         FAIR      93  64  38 SW14      30.02F
$$

SDZ004>011-016>023-039-040-261900-
NORTHEAST SOUTH DAKOTA

CITY           SKY/WX    TMP DP  RH WIND       PRES   REMARKS
ABERDEEN       CLOUDY    70  62  76 SE16G23   29.98F
WATERTOWN      MOSUNNY   84  68  58 SW8       30.03F
BROOKINGS      SUNNY     84  65  52 SW9       30.04F
SISSETON         N/A     82  58  43 W14G24    29.93F
$$

SDZ017-020-022-023-036>040-048>070-261900-
SOUTHEAST SOUTH DAKOTA

CITY           SKY/WX    TMP DP  RH WIND       PRES   REMARKS
SIOUX FALLS    MOSUNNY   84  63  49 S12       30.05F
HURON          MOSUNNY   89  66  46 S16G22    29.96F THUNDER
CHAMBERLAIN    MOSUNNY   86  69  58 SW6       29.99F
MITCHELL       SUNNY     89  63  41 S10       30.00F
YANKTON        SUNNY     86  63  45 S14       30.02S
$$

ABBREVIATIONS USED IN REMARKS
   TC - TEMPERATURE IN CELSIUS
  WCI - WIND CHILL INDEX
   HX - HEAT INDEX
  VSB - VISIBILITY




USA.gov is the U.S. government's official web portal to all federal, state and local government web resources and services.